[ hide orbit diagram ]
For accurate long-term ephemerides, please instead use our Horizons system.This orbit viewer was implemented using two-body methods, and hence should not be used for determining accurate long-term trajectories (over several years or decades) or planetary encounter circumstances.
Orbital Elements at Epoch 2459000.5 (2020-May-31.0) TDB
Reference: JPL 17 (heliocentric ecliptic J2000)
Element | Value | Uncertainty (1-sigma) | Units |
e | .08660922257217669 | 8.6956e-08 | |
a | 2.1240369588469 | 1.3012e-08 | au |
q | 1.9400757691266 | 1.8427e-07 | au |
i | 3.896202690381583 | 1.2768e-05 | deg |
node | 48.05766327348222 | 5.1145e-05 | deg |
peri | 301.679054161791 | 8.6657e-05 | deg |
M | 108.1968393123525 | 7.0472e-05 | deg |
tp | 2458660.676346877756 (2019-Jun-26.17634688) | 0.00022151 | TDB |
period | 1130.684739975035 3.10 | 1.039e-05 2.845e-08 | d yr |
n | .3183911370449279 | 2.9257e-09 | deg/d |
Q | 2.307998148567201 | 1.4139e-08 | au |
|
| | Orbit Determination Parameters
Additional Information
|
[ show covariance matrix ]
Physical Parameter Table
Parameter |
Symbol |
Value |
Units |
Sigma |
Reference |
Notes |
absolute magnitude |
H |
17.6 |
|
n/a |
MPO503464 |
|
|
382175 (2012 JK25) Discovered 2007-Nov-11 by Mt. Lemmon Survey at Mount Lemmon |
Reference: | Last Updated: 2013-12-19 |
|
|